Showing default

COSMOS 2303, 23445

Orbit data source: Space-Track

COSMOS 2303, 23445 is a payload satellite owned by VKS (CIS) in LEO that was launched on Mon, 26 Dec 1994 UTC via a TSIKLON-3 launch vehicle from the Plesetsk Missile And Space Complex (PKMTR). Payload-class satellites include a variety of spacecraft equipped with specific instruments for various scientific and technological missions. These include communications satellites like Starlink; space stations such as the ISS; scientific satellites like the Hubble; Earth observation satellites from companies like Planet Labs, Umbra, and HawkEye 360; GPS; miniature CubeSats for education and research; and military/defense satellites.

Loading next visibility...
Identifier
23445, 1994-086E
Orbit
LEO
Country
Flag of CISCIS
Related business
Manufacturer
NPO PM
Mission
Defense Communications
Bus & Motor
STRELA-3, Unknown motor
Mass
225 kg wet, 225 kg dry
Launch date (UTC)
1994-12-26 (31 years ago)
Launch vehicle
TSIKLON-3
Launch site
Plesetsk Missile And Space Complex (PKMTR)
Object type
Payload
Rocket body
Debris
Shape & HBR
Cyl, 0.8 m
Radar Cross Section
1.257 m², Large (>1 m²)

Expand to show TLE details & history
Last TLE update: 14 hours ago

TLE from 14 hours ago
0 COSMOS 2303
1 23445U 94086E   26071.03766398  .00000031  00000-0  11881-3 0  9999
2 23445  82.5733  47.8306 0012525  68.6799 358.5746 12.60558884435744
Epoch: 2026-03-12T00:54Z
TLE epoch observation values (Epoch: 2026-03-12T00:54:14.167Z)
Latitude
66.20927°
Longitude
-118.3112°
Altitude
1,422.288 km
Speed
7.16 km/s
True Right ascension
04h 19m 45s
True Declination
66° 05' 34"
Sunlit
Object was in daylight at epoch
Visualization orbit readout
Latitude
Unknown
Longitude
Unknown
Altitude
Unknown
Speed
Unknown
Apparent Right ascension
Unknown
Apparent Declination
Unknown
Sunlit
N/A
Visualization observer readout
Local Sidereal Time
19:40:17
Azimuth
Unknown
Elevation
Unknown
Doppler factor
Unknown
Orbital elements
Apogee altitude
1,427.726 km
Perigee altitude
1,408.197 km
Semi-major axis
7,796.099 km
Eccentricity
0.00125
Inclination
82.5733°
RAAN
47.8306°
Arg. of periapsis
68.6799°
True anomaly
358.57102°
Mean anomaly
358.5746°
Eccentric anomaly
358.57281°
Mean motion
3.15302 °/min
Orbital period
114.18 mins
BSTAR
0.00011881
Loading maneuver chart data...
Computing Atmospheric mass density...
Loading historical data...
Loading historical data...
Loading historical data...
Loading historical data...
Loading historical data...
Loading historical data...
Loading historical data...

Documentation

Showing up to 5 results
|